Voltar ao catálogo

STARLINK-11697

AtivoComunicaçõesVLEO
NORAD 63553·PAYLOAD·🇺🇸 United States

Lançado Apr 13, 2025 de Cape Canaveral Space Force Station

Loading…

Próximas Passagens (próximas 24 horas)

TLE

AtualizadoSource: CelesTrak SupGP

Época: Sep 15, 2026, 03:53 UTC

1 63553C 25075F   26258.16229167 -.00004163  00000+0 -32308-4 0  2581
2 63553  43.0005  91.5099 0001748 273.7829 319.6623 15.70859403    10

Acompanhe STARLINK-11697 em tempo real com AllMySat

Download on the App Store